User: anonymous   Login
Location: Unspecified
(0.0000°N, 0.0000°E)
Time: 19:24:07
(UTC+00:00)
Language:

STARLINK-32440 - Orbit

View from above orbital plane
View from above orbital plane
View from above satellite
View from above satellite

Ground track
Ground track

The orbit is defined by the following mean orbital elements,

1 61714U          26145.28711801 +.00000000 +00000-0 +20930-4 0 00006
2 61714  53.1602 105.5762 0001302  85.9605 274.1545 15.30191363    03
Epoch (UTC): 25 May 2026 06:53:26
Eccentricity: 0.0001302
inclination: 53.1602°
perigee height: 474 km
apogee height: 476 km
right ascension of ascending node: 105.5762°
argument of perigee: 85.9605°
revolutions per day: 15.30191363
mean anomaly at epoch: 274.1545°

The dashed part of the orbit path shows where the satellite is in the earth's shadow,  

DLR